CAPE
0 0 0 0 0 0 0 0 0 0 0 0 0 0 0 0 0 0 0 0 0 0 0 0 0 0 0 0 0 0 0 0 0 0 0 0 0 0 0 0 0 0 0 0 0
0 0 0 0 0 0 0 0 0 0 0 0 0 0 0 0 0 0 0 0 0 0 0 0 0 0 0 0 0 0 0 0 0 0 0 0 0 0 0 0 0 0 0 0 0
0 0 0 0 0 0 0 0 0 0 0 0 0 0 0 0 0 0 0 0 0 0 0 0 0 0 0 0 0 0 0 0 0 0 0 0 0 0 0 0 0 0 0 0 0
0 0 0 0 0 0 0 0 0 0 0 0 0 0 0 0 0 0 0 0 0 0 0 0 0 0 0 0 0 0 0 0 0 0 0 0 0 0 0 0 0 0 0 0 0
0 0 0 0 0 0 0 0 0 0 0 0 0 0 0 0 0 0 0 0 0 0 0 0 0 0 0 0 0 0 0 0 0 0 0 0 0 0 0 0 0 0 0 0 0
0 0 0 0 0 0 0 0 0 0 0 0 0 0 0 0 0 0 0 0 0 0 0 0 0 0 0 0 0 0 0 0 0 0 0 0 0 0 0 0 0 0 0 0 0
0 0 0 0 0 0 0 0 0 0 0 0 0 0 0 0 0 0 0 0 0 0 0 0 0 0 0 0 0 0 0 0 0 0 0 0 0 0 0 0 0 0 0 0 0
0 0 0 0 0 0 0 0 0 0 0 0 0 0 0 0 0 0 0 0 0 0 0 0 0 0 0 0 0 0 0 0 0 0 0 0 0 0 0 0 0 0 0 0 0
0 0 0 0 0 0 0 0 0 0 0 0 0 0 0 0 0 0 0 0 0 0 0 0 0 0 0 0 0 0 0 0 0 0 0 0 0 0 0 0 0 0 0 0 0
0 0 0 0 0 0 0 0 0 0 0 0 0 0 0 0 0 0 0 0 0 0 0 0 0 0 0 0 0 0 0 0 0 0 0 0 0 0 0 0 0 0 0 0 0
0 0 0 0 0 0 0 0 0 0 0 0 0 0 0 0 0 0 0 0 0 0 0 0 0 0 0 0 0 0 0 0 0 0 0 0 0 0 0 0 0 0 0 0 0
2 2 0 0 0 0 0 0 0 0 0 0 0 0 0 0 0 0 0 0 0 0 0 0 0 0 0 0 0 0 0 0 0 0 0 0 0 0 0 0 0 0 0 0 0
4 2 0 0 0 0 0 0 0 0 0 0 0 0 0 0 0 0 0 0 0 0 0 0 0 0 0 0 0 0 0 0 0 0 0 0 0 0 0 0 0 0 0 0 0
4 1 0 0 0 0 0 0 0 0 0 0 0 0 0 0 0 0 0 0 0 0 0 0 0 0 0 0 0 0 0 0 0 0 0 0 0 0 0 0 0 0 0 0 0
4 0 0 0 0 0 0 0 0 0 0 0 0 0 0 0 0 0 0 0 0 0 0 0 0 0 0 0 0 0 0 0 0 0 0 0 0 0 0 0 0 0 0 0 0
0 0 0 1 0 0 0 0 0 0 0 0 0 0 0 0 0 0 0 0 0 0 0 0 0 0 0 0 0 0 0 0 0 0 0 0 0 0 0 0 0 0 0 0 0
0 0 0 0 0 0 0 0 0 0 0 0 0 0 0 0 0 0 0 0 0 0 0 0 0 0 0 0 0 0 0 0 0 0 0 0 0 0 0 0 0 0 0 0 0
0 0 0 0 0 0 0 6 0 0 0 0 0 0 0 0 0 0 0 0 0 0 0 0 0 0 0 0 0 0 0 0 0 0 0 0 0 0 0 0 0 0 0 0 0
0 1 0 0 0 0 9 2 0 0 0 0 0 0 0 0 0 0 0 0 0 0 0 0 0 0 0 0 0 0 0 0 0 0 0 0 0 0 0 0 0 0 0 0 0
0 0 0 1 0 0 9 2 0 0 0 0 0 0 0 0 0 0 0 0 0 0 0 0 0 0 0 0 0 0 0 0 0 0 0 0 0 0 0 0 0 0 0 0 0
0 0 0 0 1 13 2 2 0 0 0 0 0 0 0 0 0 0 1 0 0 0 0 0 0 0 0 0 0 0 0 0 0 0 0 0 0 0 0 0 0 0 0 0 0
0 0 0 3 0 1 0 0 0 0 0 0 0 0 0 0 0 4 0 0 0 0 0 0 0 0 0 0 0 0 0 0 6 0 1 22 0 0 0 0 0 0 0 0 0
0 0 3 5 0 2 1 0 0 0 0 0 0 0 0 0 0 0 0 0 0 0 1 0 0 0 0 0 0 0 0 0 0 0 0 3 0 0 0 0 0 0 0 0 0
0 0 3 8 0 0 1 0 0 0 0 0 0 0 0 0 0 0 0 0 0 0 0 0 0 0 0 0 0 0 0 0 0 0 0 0 0 0 0 0 0 0 0 0 0
0 0 0 0 2 0 0 0 0 0 0 0 2 2 0 4 2 3 0 0 0 0 0 0 0 0 0 0 0 0 0 0 0 0 0 0 0 0 0 0 0 0 0 0 0
0 1 0 0 0 2 1 0 0 0 1 0 0 0 3 4 0 0 0 0 0 0 0 0 0 0 0 0 0 0 0 0 0 0 0 0 0 0 0 0 0 0 0 0 0
0 0 0 0 0 0 0 0 0 0 0 0 0 0 0 0 0 0 0 0 0 0 0 0 0 0 0 0 0 0 0 0 0 0 0 0 0 0 0 0 0 0 0 0 0
CIN
0 0 0 0 0 0 0 0 0 0 0 0 0 0 0 0 0 0 0 0 0 0 0 0 0 0 0 0 0 0 0 0 0 0 0 0 0 0 0 0 0 0 0 0 0
0 0 0 0 0 0 0 0 0 0 0 0 0 0 0 0 0 0 0 0 0 0 0 0 0 0 0 0 0 0 0 0 0 0 0 0 0 0 0 0 0 0 0 0 0
0 0 0 0 0 0 0 0 0 0 0 0 0 0 0 0 0 0 0 0 0 0 0 0 0 0 0 0 0 0 0 0 0 0 0 0 0 0 0 0 0 0 0 0 0
0 0 0 0 0 0 0 0 0 0 0 0 0 0 0 0 0 0 0 0 0 0 0 0 0 0 0 0 0 0 0 0 0 0 0 0 0 0 0 0 0 0 0 0 0
0 0 0 0 0 0 0 0 0 0 0 0 0 0 0 0 0 0 0 0 0 0 0 0 0 0 0 0 0 0 0 0 0 0 0 0 0 0 0 0 0 0 0 0 0
0 0 0 0 0 0 0 0 0 0 0 0 0 0 0 0 0 0 0 0 0 0 0 0 0 0 0 0 0 0 0 0 0 0 0 0 0 0 0 0 0 0 0 0 0
0 0 0 0 0 0 0 0 0 0 0 0 0 0 0 0 0 0 0 0 0 0 0 0 0 0 0 0 0 0 0 0 0 0 0 0 0 0 0 0 0 0 0 0 0
0 0 0 0 0 0 0 0 0 0 0 0 0 0 0 0 0 0 0 0 0 0 0 0 0 0 0 0 0 0 0 0 0 0 0 0 0 0 0 0 0 0 0 0 0
0 0 0 0 0 0 0 0 0 0 0 0 0 0 0 0 0 0 0 0 0 0 0 0 0 0 0 0 0 0 0 0 0 0 0 0 0 0 0 0 0 0 0 0 0
0 0 0 0 0 0 0 0 0 0 0 0 0 0 0 0 0 0 0 0 0 0 0 0 0 0 0 0 0 0 0 0 0 0 0 0 0 0 0 0 0 0 0 0 0
0 0 0 0 0 0 0 0 0 0 0 0 0 0 0 0 0 0 0 0 0 0 0 0 0 0 0 0 0 0 0 0 0 0 0 0 0 0 0 0 0 0 0 0 0
-15 -19 -17 0 0 0 0 0 0 0 0 0 0 0 0 0 0 0 0 0 0 0 0 0 0 0 0 0 0 0 0 0 0 0 0 0 0 0 0 0 0 0 0 0 0
-11 -11 -2 0 0 0 0 0 0 0 0 0 0 0 0 0 0 0 0 0 0 0 0 0 0 0 0 0 0 0 0 0 0 0 0 0 0 0 0 0 0 0 0 0 0
-9 -5 0 0 0 0 0 0 0 0 0 0 0 0 0 0 0 0 0 0 0 0 0 0 0 0 0 0 0 0 0 0 0 0 0 0 0 0 0 0 0 0 0 0 0
-6 -7 -5 0 0 0 0 0 0 0 0 0 0 0 0 0 0 0 0 0 0 0 0 0 0 0 0 0 0 0 0 0 0 0 0 0 0 0 0 0 0 0 0 0 0
-1 -6 0 0 0 0 0 0 0 0 0 0 0 0 0 0 0 0 0 0 0 0 0 0 0 0 0 0 0 0 0 0 0 0 0 0 0 0 0 0 0 0 0 0 0
0 0 0 0 0 0 0 0 0 0 0 0 0 0 0 0 0 0 0 0 0 0 0 0 0 0 0 0 0 0 0 0 0 0 0 0 0 0 0 0 0 0 0 0 0
0 0 0 0 0 0 0 -1 0 0 0 0 0 0 0 0 0 0 0 0 0 0 0 0 0 0 0 0 0 0 0 0 0 0 0 0 0 0 0 0 0 0 0 0 0
0 0 0 0 0 0 -3 0 0 0 0 0 0 0 0 0 0 0 0 0 0 0 0 0 0 0 0 0 0 0 0 0 0 0 0 0 0 0 0 0 0 0 0 0 0
0 0 0 0 0 0 -3 0 0 0 0 0 0 0 0 0 0 0 0 0 0 0 0 0 0 0 0 0 0 0 0 0 0 0 0 0 0 0 0 0 0 0 0 0 0
0 0 0 0 -2 -6 0 0 0 0 0 0 0 0 0 0 0 0 -8 0 0 0 0 0 0 0 0 0 0 0 0 0 0 -2 0 0 0 0 0 0 0 0 0 0 0
0 0 0 -3 -0 0 0 0 0 0 0 0 0 0 0 0 -1 -8 -1 -1 0 0 0 0 0 0 0 0 0 0 0 0 -3 0 -13 -3 -3 0 0 0 0 0 0 0 0
0 0 -1 -1 0 0 0 0 0 0 0 0 0 0 0 0 -2 0 0 0 0 0 -31 0 0 0 0 0 0 0 0 0 0 0 -2 -2 0 0 0 0 0 0 0 0 0
0 0 0 -3 -0 0 0 0 0 0 0 0 0 0 0 0 0 0 0 0 0 0 0 -5 0 0 0 0 0 0 0 0 0 0 0 0 0 0 0 0 0 0 0 0 0
0 0 0 0 0 0 -0 0 0 -0 -2 0 -2 -4 0 -1 -2 -5 -10 0 0 0 0 0 0 0 0 0 0 0 0 0 0 0 0 0 0 0 0 0 0 0 0 0 0
0 0 0 0 0 -1 0 0 0 0 -6 0 0 0 -5 -4 0 0 0 0 0 0 0 0 0 0 0 0 0 0 0 0 0 0 0 0 0 0 0 0 0 0 0 0 0
0 0 0 0 0 0 0 0 0 0 0 0 0 -1 0 0 0 0 0 0 0 0 0 0 0 0 0 0 0 0 0 0 0 0 0 0 0 0 0 0 0 0 0 0 0
Wind_Speed
17 18 18 19 20 20 21 22 22 23 23 24 24 24 25 26 26 20 21 14 13 9 13 13 13 14 15 16 16 17 17 15 16 20 17 16 17 17 17 13 15 11 10 6 11
19 19 20 20 21 22 22 23 24 25 25 26 26 26 27 28 25 24 17 14 13 9 12 12 14 14 16 15 16 15 16 14 16 20 21 21 21 22 21 8 10 6 11 14 15
20 20 21 21 22 23 23 24 26 27 27 27 27 27 27 27 25 19 16 14 12 9 14 13 18 14 18 14 14 13 15 14 18 24 22 24 24 23 26 23 8 7 15 20 17
21 22 22 22 23 24 24 26 27 28 28 28 28 27 27 21 23 18 16 13 11 10 17 17 16 16 16 15 12 14 12 14 20 25 24 23 24 24 21 13 9 8 17 24 26
22 23 23 23 24 25 26 27 29 30 30 29 27 26 22 22 21 19 16 14 12 13 16 14 14 14 17 17 22 16 19 20 22 24 23 22 22 18 15 9 11 18 25 26 25
23 23 23 24 25 26 27 29 31 31 29 26 24 21 20 24 18 16 16 14 14 14 15 13 14 15 19 20 21 22 24 26 26 24 22 18 18 23 23 28 29 30 29 32 32
23 23 23 24 26 27 29 30 31 29 27 24 20 18 20 21 18 16 15 15 15 16 17 18 16 18 20 23 21 23 28 31 29 21 19 19 23 19 21 28 36 35 34 32 26
23 23 23 25 26 28 29 30 29 26 25 21 16 19 22 18 17 17 16 18 17 17 17 18 17 18 20 20 25 27 27 27 24 21 23 22 26 27 27 33 40 38 35 24 26
22 22 23 25 27 29 31 32 26 23 21 17 19 20 24 18 18 17 17 17 16 17 18 17 18 18 19 21 26 22 24 23 27 26 21 22 30 30 33 33 35 36 27 23 24
21 22 23 25 27 29 32 30 22 23 20 19 20 23 20 20 18 17 16 14 18 16 18 18 18 18 20 18 26 27 27 27 31 27 30 32 33 32 32 38 36 28 23 22 23
20 21 23 25 27 29 28 24 25 24 21 22 21 23 21 18 17 19 17 16 17 19 20 17 20 21 19 17 21 26 29 33 30 31 36 36 32 31 33 32 32 21 20 22 24
18 20 22 24 26 28 25 24 23 23 31 26 26 25 22 19 25 21 15 19 19 23 19 22 26 21 21 23 24 25 29 33 35 30 31 35 36 35 29 30 24 16 18 19 21
19 21 23 24 26 25 22 22 19 20 30 32 26 25 23 21 26 21 13 18 21 22 21 25 25 17 23 26 27 27 29 30 30 30 27 32 34 28 30 23 18 17 16 18 18
20 21 22 21 24 20 23 17 18 20 34 33 26 23 19 18 22 16 13 16 19 21 22 24 20 23 24 24 21 27 20 21 25 30 34 28 43 33 27 23 19 17 17 17 18
21 20 19 17 22 22 19 14 16 20 39 23 19 15 15 15 15 17 14 15 18 17 17 20 17 16 17 17 13 21 19 23 27 30 35 33 37 32 25 23 18 15 15 16 17
22 19 16 19 21 18 11 12 16 25 34 22 17 17 17 16 16 15 15 15 16 16 17 18 16 17 17 16 17 19 25 28 29 29 38 32 29 36 27 22 17 15 15 15 16
18 17 17 16 21 10 9 13 23 29 21 22 21 18 18 18 17 15 15 15 17 21 21 19 17 16 16 21 22 22 26 35 37 36 38 25 34 31 26 21 17 14 14 16 17
14 11 15 17 11 8 11 18 31 25 24 20 20 18 23 17 19 16 17 23 19 20 23 28 31 19 19 21 24 21 25 32 41 41 41 35 42 35 23 18 13 14 16 18 18
11 15 16 15 10 10 14 27 30 26 23 21 20 25 24 21 22 20 24 27 22 18 26 27 30 19 19 19 19 25 30 25 35 37 44 38 32 26 23 19 16 17 18 20 20
15 15 16 9 9 14 22 29 26 20 20 21 26 22 27 23 26 25 26 24 23 21 22 26 33 26 23 20 22 25 20 33 31 42 46 40 40 35 25 23 20 22 24 22 21
13 17 15 10 13 19 27 27 23 19 19 21 25 27 27 27 26 28 29 26 22 21 20 22 30 32 26 28 28 28 32 29 30 32 41 44 41 27 27 22 25 25 24 22 22
16 23 14 13 22 24 27 25 23 23 23 23 25 28 30 30 32 32 32 28 21 21 29 26 29 39 37 27 25 26 30 29 36 39 36 39 45 27 27 23 24 28 27 25 26
20 22 18 19 29 29 27 30 29 27 27 27 30 30 30 33 36 35 32 27 22 25 26 23 32 42 41 32 26 27 26 25 29 33 42 44 43 25 27 28 31 33 33 32 31
23 27 24 25 28 31 30 32 31 28 32 31 33 33 33 36 32 36 33 25 24 24 21 20 31 36 43 35 28 32 34 33 33 40 43 45 49 49 44 42 40 40 38 35 32
26 32 28 33 33 32 30 31 34 35 32 30 37 35 34 37 35 34 28 24 22 19 21 24 37 35 37 37 36 39 42 41 41 41 46 51 51 48 49 48 43 39 37 33 32
29 29 28 29 28 30 33 37 38 34 33 37 39 33 32 37 34 35 32 31 30 24 27 24 37 34 41 36 37 43 42 40 43 45 47 48 52 45 41 37 36 34 34 33 32
23 22 25 28 29 31 37 38 38 33 35 32 32 32 31 29 24 22 22 21 22 25 27 27 31 35 46 37 38 49 43 42 39 38 41 48 44 39 38 38 35 34 34 33 33
Wind_Direction
319 320 319 320 322 323 323 324 319 313 310 302 299 298 298 297 294 339 331 358 5 38 15 20 15 19 17 8 6 4 359 5 9 360 8 13 9 10 4 8 2 13 7 12 10
313 316 318 320 321 323 324 323 319 310 307 303 302 303 307 311 324 324 347 359 5 35 16 12 4 8 357 4 2 3 356 3 2 355 347 346 347 349 346 343 343 333 358 355 3
311 314 317 319 320 321 320 318 313 307 305 303 304 308 311 318 322 334 350 2 17 40 4 4 349 355 345 353 354 0 350 359 343 337 341 337 336 342 334 337 332 293 341 338 338
306 310 313 316 318 318 318 314 309 305 304 305 306 311 314 332 321 339 344 353 0 1 343 343 343 344 345 347 355 345 346 346 338 334 333 335 336 335 339 257 333 321 338 332 331
303 306 308 311 313 315 314 312 308 305 306 310 312 316 326 322 322 333 340 343 345 340 336 343 344 345 338 340 332 333 332 331 331 329 330 332 332 336 329 267 333 342 334 330 330
300 303 306 308 310 310 310 309 308 307 311 316 320 323 323 316 331 337 338 339 338 336 336 340 343 340 330 329 326 329 326 325 326 323 325 328 335 335 339 335 329 331 334 329 325
299 301 303 305 306 307 307 308 309 314 316 319 324 327 320 317 329 335 338 333 332 331 325 328 327 327 330 325 330 328 323 322 325 333 335 335 330 336 340 333 318 322 326 330 341
297 300 303 304 305 306 307 309 313 318 321 325 329 324 315 325 331 329 330 326 326 325 325 326 330 323 322 327 323 321 323 324 334 334 331 330 322 329 333 326 308 314 325 339 339
296 299 302 304 305 306 306 306 313 318 324 332 324 320 312 329 325 327 329 326 331 329 328 329 327 322 325 322 321 324 321 323 323 331 334 330 323 327 322 323 321 321 336 342 342
294 297 300 303 305 307 307 310 318 316 319 322 318 313 314 315 323 328 328 334 327 329 326 323 323 320 321 319 315 318 317 317 317 324 321 319 317 321 322 313 316 329 337 343 344
293 296 299 301 305 308 313 316 309 309 309 305 311 307 315 322 325 321 326 324 325 320 314 318 313 309 311 307 313 316 314 312 317 318 315 315 318 321 322 321 324 336 336 338 341
292 295 298 302 304 306 312 309 312 313 302 303 301 300 305 310 305 310 319 311 309 305 311 310 302 305 310 310 309 311 312 312 315 319 318 316 314 318 323 323 327 331 336 339 340
290 292 296 300 305 307 309 311 323 322 305 302 304 301 301 305 301 301 302 307 304 301 298 296 306 314 311 307 307 308 310 313 315 322 324 322 316 321 326 337 343 344 347 350 351
286 289 293 299 302 307 306 318 322 324 301 302 305 308 312 313 307 319 314 309 305 300 301 304 299 302 305 308 309 311 320 319 318 319 315 326 312 318 324 328 333 340 345 349 353
281 285 287 289 301 301 310 323 325 320 292 310 311 332 333 321 328 327 330 317 306 311 313 312 318 320 317 320 326 319 328 323 318 314 312 312 310 318 324 319 324 334 343 349 355
277 281 278 288 293 304 319 326 322 297 288 302 315 316 317 319 322 329 328 331 328 313 312 309 327 322 319 323 320 324 319 316 314 314 307 312 307 313 321 318 318 327 336 342 347
266 271 276 287 286 286 304 306 293 285 302 299 302 308 309 311 313 316 317 318 317 313 310 320 307 315 314 311 316 316 315 311 307 304 305 315 310 310 324 322 314 320 331 337 339
259 266 276 284 289 283 282 280 279 287 287 306 308 305 301 305 308 308 308 306 307 311 309 305 304 302 310 306 309 307 311 306 304 302 304 310 302 311 329 338 337 333 331 333 334
251 271 278 273 273 274 264 272 280 283 293 293 301 296 298 300 304 302 299 300 303 295 298 304 304 317 315 313 312 309 303 312 303 303 300 302 307 318 323 329 332 326 330 329 329
255 272 275 269 272 267 265 273 279 289 297 293 286 292 292 296 296 298 298 307 301 302 302 305 299 302 308 312 310 307 311 304 305 300 297 300 301 303 311 316 322 320 319 322 323
262 268 272 276 277 269 263 272 280 290 292 292 289 290 292 293 293 295 299 303 303 303 309 305 298 300 304 301 301 304 301 301 301 296 298 299 299 310 312 314 314 315 316 317 315
263 268 268 261 265 268 267 271 284 283 286 289 291 290 289 292 294 291 290 293 298 298 296 301 300 294 295 304 306 301 299 298 294 297 296 296 296 310 313 312 314 313 310 310 309
261 273 275 261 260 263 270 271 276 279 279 283 284 287 290 288 290 289 288 296 293 295 295 298 297 296 299 304 304 298 301 304 306 301 293 294 299 314 313 311 309 309 307 306 307
265 268 272 263 272 269 267 270 271 278 277 278 286 285 288 286 288 292 291 293 296 296 299 296 293 290 290 300 306 299 299 302 301 296 297 293 298 299 303 305 307 306 305 304 302
274 271 267 266 264 266 268 277 272 276 277 278 280 280 284 286 286 285 290 297 302 298 298 295 292 292 293 295 298 296 294 295 294 295 294 297 298 300 304 306 307 308 309 306 304
268 272 271 270 268 264 263 271 275 280 275 277 278 284 279 282 285 289 286 288 290 293 293 296 294 298 294 296 296 294 293 295 295 295 295 296 296 303 307 309 309 309 311 309 309
275 277 273 275 273 266 267 273 277 277 281 284 278 279 284 285 292 294 299 299 295 290 293 295 294 296 294 299 299 294 295 295 296 297 300 299 304 308 308 308 308 310 311 311 310